I1SCL Weather Reports


time (UTC)temp
C
wind
direction
speed
KPH
gust
KPH
rain 1hr
cm
rain 24hr
cm
rain mn
cm
humidity
%
barometer
mb
20260505041645 13 315 0.0 1.6 0.03 0.56 0.00 92 1007.9
20260505041148 13 315 0.0 1.6 0.03 0.56 0.00 92 1007.9
20260505040648 13 315 1.6 9.7 0.03 0.56 0.00 92 1008.0
20260505040148 13 248 6.4 9.7 0.03 0.56 0.00 92 1008.2
20260505035651 13 248 6.4 9.7 0.03 0.56 0.00 92 1008.1
20260505035148 13 248 9.7 12.9 0.03 0.56 0.00 91 1008.3
20260505034648 13 270 9.7 12.9 0.00 0.53 0.00 91 1008.2
20260505034145 13 270 9.7 12.9 0.00 0.53 0.00 91 1008.3
20260505033645 13 270 9.7 12.9 0.00 0.53 0.00 91 1008.1
20260505033151 13 248 9.7 12.9 0.00 0.53 0.00 91 1008.2
20260505032645 13 248 6.4 9.7 0.00 0.53 0.00 91 1008.1
20260505022202 13 113 0.0 0.0 0.25 0.53 0.00 89 1009.5
20260505021659 13 113 0.0 0.0 0.25 0.53 0.00 89 1009.5
20260505021156 13 113 0.0 1.6 0.25 0.53 0.00 89 1009.5
20260505020702 13 113 0.0 3.2 0.23 0.51 0.00 89 1009.2
20260505020159 13 270 9.7 12.9 0.00 0.25 0.00 86 1009.6
20260505015656 13 270 9.7 12.9 0.00 0.25 0.00 86 1009.6
20260505015156 13 270 9.7 12.9 0.00 0.25 0.00 86 1009.3
20260505004611 13 113 14.5 20.9 0.03 0.25 0.00 83 1009.6
20260505004108 13 113 14.5 20.9 0.03 0.25 0.00 83 1009.6
20260505003614 13 113 14.5 20.9 0.03 0.25 0.00 83 1009.6
20260505001629 13 135 11.3 16.1 0.03 0.25 0.00 82 1010.5
20260505001129 13 135 11.3 16.1 0.03 0.25 0.00 82 1010.5
20260505000629 13 135 11.3 16.1 0.03 0.25 0.00 82 1010.6
20260505000138 13 135 11.3 16.1 0.05 0.25 0.00 82 1010.6
20260504235629 14 113 9.7 19.3 0.05 0.25 0.00 80 1010.6
20260504235132 14 113 14.5 24.1 0.03 0.23 0.00 78 1010.8
20260504234629 14 113 12.9 24.1 0.03 0.23 0.00 77 1010.8
20260504234129 14 113 16.1 24.1 0.03 0.23 0.00 77 1010.8
20260504233638 15 113 14.5 24.1 0.05 0.23 0.00 76 1010.8
20260504233129 15 113 9.7 24.1 0.08 0.23 0.00 75 1010.7
20260504232635 15 113 11.3 30.6 0.08 0.23 0.00 74 1010.9
20260504232129 15 68 19.3 30.6 0.08 0.23 0.00 74 1010.6
20260504231629 15 113 16.1 30.6 0.10 0.23 0.00 74 1010.8
20260504231132 15 135 19.3 30.6 0.10 0.23 0.00 75 1010.8
20260504230629 15 90 14.5 30.6 0.10 0.23 0.00 75 1010.8
20260504230135 14 90 14.5 20.9 0.10 0.20 0.00 77 1011.2
20260504225629 14 113 12.9 24.1 0.10 0.20 0.00 77 1011.3
20260504225135 13 113 9.7 19.3 0.10 0.20 0.00 80 1011.7
20260504224629 13 68 9.7 19.3 0.10 0.20 0.00 81 1011.6
20260504224129 13 45 11.3 20.9 0.10 0.20 0.00 83 1011.5
20260504223632 13 45 11.3 20.9 0.08 0.18 0.00 84 1011.4
20260504223129 13 90 14.5 20.9 0.05 0.13 0.00 84 1011.4
20260504222632 13 113 14.5 19.3 0.08 0.13 0.00 83 1011.7
20260504222129 13 68 6.4 12.9 0.08 0.13 0.00 82 1012.1
20260504221632 13 135 4.8 9.7 0.08 0.10 0.00 82 1012.0
20260504221129 13 113 6.4 9.7 0.08 0.10 0.00 80 1012.3
20260504220629 14 113 4.8 12.9 0.08 0.10 0.00 77 1012.0
20260504220132 15 135 9.7 17.7 0.05 0.08 0.00 74 1012.2
20260504215629 15 113 6.4 17.7 0.05 0.08 0.00 71 1012.0
20260504215135 15 68 9.7 24.1 0.05 0.08 0.00 70 1011.9
20260504214629 14 68 9.7 14.5 0.05 0.08 0.00 75 1012.1
20260504214135 14 68 9.7 24.1 0.05 0.08 0.00 75 1012.2
20260504213629 14 23 12.9 27.4 0.05 0.08 0.00 76 1012.1
20260504213129 14 68 14.5 35.4 0.05 0.08 0.00 77 1011.9
20260504212629 14 90 17.7 29.0 0.03 0.05 0.00 74 1012.2
20260504212135 14 90 17.7 29.0 0.03 0.05 0.00 74 1012.3
20260504211635 15 113 16.1 29.0 0.00 0.03 0.00 72 1012.7
20260504211128 15 113 14.5 32.2 0.00 0.03 0.00 68 1012.8
20260504210631 16 90 19.3 32.2 0.00 0.03 0.00 66 1012.7
20260504210128 15 90 11.3 24.1 0.00 0.03 0.00 67 1012.8
20260504205628 15 90 14.5 24.1 0.00 0.03 0.00 66 1012.8
20260504205128 15 113 14.5 30.6 0.00 0.03 0.00 66 1013.1
20260504204635 15 113 17.7 24.1 0.03 0.03 0.00 67 1012.9
20260504204132 15 113 14.5 30.6 0.03 0.03 0.00 67 1012.9
20260504203628 15 90 14.5 27.4 0.03 0.03 0.00 67 1012.9
20260504203128 15 90 14.5 30.6 0.03 0.03 0.00 68 1012.9
20260504202632 15 113 17.7 35.4 0.03 0.03 0.00 68 1012.7
20260504202128 15 90 22.5 35.4 0.03 0.03 0.00 68 1012.5
20260504201628 15 90 16.1 27.4 0.03 0.03 0.00 69 1012.5
20260504201132 15 113 17.7 27.4 0.03 0.03 0.00 70 1012.5
20260504200629 15 113 14.5 24.1 0.03 0.03 0.00 71 1012.5
20260504200135 15 90 14.5 24.1 0.03 0.03 0.00 70 1012.5
20260504195635 15 113 14.5 24.1 0.03 0.03 0.00 71 1012.7
20260504195131 15 90 11.3 20.9 0.03 0.03 0.00 74 1012.4
20260504194631 15 113 12.9 24.1 0.00 0.00 0.00 71 1012.5
20260504194135 15 45 12.9 32.2 0.00 0.00 0.00 69 1012.5
20260504193632 15 68 14.5 30.6 0.00 0.00 0.00 69 1012.5
20260504193132 16 90 14.5 27.4 0.00 0.00 0.00 67 1012.8
20260504192629 16 113 16.1 38.6 0.00 0.00 0.00 67 1012.7
20260504192132 15 23 16.1 30.6 0.00 0.00 0.00 67 1012.4
20260504191631 15 90 20.9 32.2 0.00 0.00 0.00 68 1012.8
20260504191128 15 113 14.5 29.0 0.00 0.00 0.00 67 1012.8
20260504190631 16 135 17.7 35.4 0.00 0.00 0.00 66 1012.7
20260504190129 16 135 24.1 35.4 0.00 0.00 0.00 64 1012.7
20260504185628 16 90 19.3 35.4 0.00 0.00 0.00 63 1012.8
20260504185129 16 113 16.1 29.0 0.00 0.00 0.00 63 1012.6
20260504184628 16 90 19.3 27.4 0.00 0.00 0.00 62 1012.7
20260504184135 16 90 14.5 24.1 0.00 0.00 0.00 61 1012.5
20260504183628 16 135 11.3 20.9 0.00 0.00 0.00 60 1012.7
20260504183132 16 113 14.5 24.1 0.00 0.00 0.00 59 1012.7
20260504182628 17 113 14.5 27.4 0.00 0.00 0.00 59 1012.5
20260504182132 16 113 12.9 30.6 0.00 0.00 0.00 58 1012.4
20260504181631 16 113 16.1 29.0 0.00 0.00 0.00 58 1012.4
20260504181136 16 90 14.5 27.4 0.00 0.00 0.00 57 1012.1
20260504180632 16 90 16.1 35.4 0.00 0.00 0.00 56 1012.4
20260504180132 16 90 19.3 40.2 0.00 0.00 0.00 56 1012.4
20260504175631 16 90 16.1 29.0 0.00 0.00 0.00 55 1012.3
20260504175131 16 113 17.7 32.2 0.00 0.00 0.00 55 1012.2
20260504174628 16 135 20.9 32.2 0.00 0.00 0.00 55 1012.6
20260504174134 16 113 12.9 24.1 0.00 0.00 0.00 55 1012.6
20260504173628 16 68 17.7 35.4 0.00 0.00 0.00 55 1012.4
20260504173128 16 68 20.9 32.2 0.00 0.00 0.00 57 1012.3
20260504172631 16 113 20.9 35.4 0.00 0.00 0.00 55 1012.4
20260504172131 16 68 19.3 35.4 0.00 0.00 0.00 59 1012.5
20260504171631 16 90 20.9 35.4 0.00 0.00 0.00 61 1012.4
20260504171128 16 113 20.9 35.4 0.00 0.00 0.00 64 1012.3
20260504170628 16 113 24.1 35.4 0.00 0.00 0.00 65 1012.4
20260504170131 16 90 22.5 38.6 0.00 0.00 0.00 66 1012.4
20260504160131 15 113 32.2 49.9 0.00 0.00 0.00 73 1012.4
20260504151131 16 135 29.0 56.3 0.00 0.00 0.00 73 1012.2
20260504150634 16 135 35.4 53.1 0.00 0.00 0.00 74 1012.1
20260504150128 15 68 37.0 61.2 0.00 0.00 0.00 75 1012.2
20260504141128 16 135 30.6 54.7 0.00 0.00 0.00 73 1012.3
20260504140628 16 180 30.6 46.7 0.00 0.00 0.00 75 1012.4
20260504140128 16 203 32.2 56.3 0.00 0.00 0.00 77 1012.4
20260504130631 17 90 30.6 49.9 0.00 0.00 0.00 73 1013.1
20260504130131 17 68 30.6 49.9 0.00 0.00 0.00 73 1013.0
20260504120128 16 45 24.1 57.9 0.00 0.00 0.00 77 1013.5
20260504110628 16 135 37.0 53.1 0.00 0.00 0.00 75 1013.7
20260504110131 16 158 33.8 53.1 0.00 0.00 0.00 76 1014.0
20260504100131 18 158 19.3 43.5 0.00 0.00 0.00 69 1014.0
20260504090131 17 113 3.2 12.9 0.00 0.00 0.00 59 1014.5
20260504081634 16 293 4.8 6.4 0.00 0.00 0.00 60 1015.1
20260504081134 16 270 4.8 6.4 0.00 0.00 0.00 60 1015.0
20260504080631 16 293 4.8 6.4 0.00 0.00 0.00 61 1015.2
20260504080134 16 293 4.8 6.4 0.00 0.00 0.00 60 1014.9
20260504070128 16 45 0.0 3.2 0.00 0.00 0.00 58 1014.8
20260504060128 15 113 8.0 9.7 0.00 0.00 0.00 59 1013.9
20260504050628 15 113 3.2 6.4 0.00 0.00 0.00 59 1013.9
20260504050131 15 135 4.8 9.7 0.00 0.00 0.00 58 1014.0
20260504045628 15 113 4.8 4.8 0.00 0.00 0.00 57 1014.0